Overview Statistics Trail Chart Weather Telemetry Raw packets
 

This is the latest recevied weather packets stored in our database for station/object JF7BTK-10. If no packets are shown the sender has not sent any weather packets the latest 10 day(s).

<< 32 33 34 35 36 37 38 >>
Time Temp. Humidity Pressure Rain* Wind** Luminosity Snow
1788274690 20.56° C 99% 1006.5 hPa 5.33 mm - - -
1788273788 20° C 99% 1006.8 hPa 5.84 mm - - -
1788272890 20.56° C 96% 1007.1 hPa 5.08 mm - - -
1788271989 20.56° C 92% 1007.2 hPa 1.27 mm - - -
1788271090 21.11° C 87% 1007.3 hPa 0.51 mm - - -
1788270187 21.67° C 83% 1007.5 hPa 0 mm - - -
1788269287 21.67° C 83% 1008.1 hPa 0 mm - - -
1788268386 21.67° C 84% 1008 hPa 0 mm - - -
1788267486 21.67° C 85% 1008.3 hPa 0 mm - - -
1788266586 21.67° C 84% 1008.6 hPa 0 mm - - -
1788265687 21.67° C 84% 1009.1 hPa 0 mm - - -
1788264798 21.67° C 84% 1009.2 hPa 0 mm - - -
1788263886 21.67° C 85% 1009.6 hPa 0 mm - - -
1788262987 21.67° C 85% 1009.6 hPa 0 mm - - -
1788262086 21.67° C 85% 1010.4 hPa 0 mm - - -
1788261186 21.67° C 83% 1011.2 hPa 0 mm - - -
1788260286 21.67° C 83% 1009.8 hPa 0 mm - - -
1788259388 21.67° C 84% 1009.2 hPa 0 mm - - -
1788258487 21.67° C 84% 1009.5 hPa 0 mm - - -
1788257586 21.67° C 84% 1009.7 hPa 0 mm - - -
1788256687 21.67° C 84% 1009.4 hPa 0 mm - - -
1788255787 21.67° C 84% 1009.6 hPa 0 mm - - -
1788254886 21.67° C 84% 1009.7 hPa 0 mm - - -
1788253987 21.67° C 84% 1010 hPa 0 mm - - -
1788253549 21.67° C 85% 1009.7 hPa 0 mm - - -

* Rain latest hour (hover to see other rain measurements)
** Current wind speed in m/s (hover to see current wind gust speed)